Location: Anjeux
(47.8815°N, 6.2076°E)
Time: 17:51:25
(UTC+00:00)

Cosmos 1328 Rocket - Pass Details

Date: 05 March 2021
Orbit: 602 x 626 km, 82.5° (Epoch: 14 April)

Event Time Altitude Azimuth Distance (km) Brightness Sun altitude
Rises 04:52:48 0° 178° (S) 2,843 6.9 -13.4°
Reaches altitude 10° 04:55:02 10° 174° (S) 1,944 6.1 -13.1°
Maximum altitude 04:59:15 59° 95° (E) 699 4.2 -12.4°
Drops below altitude 10° 05:03:31 10° 16° (NNE) 1,961 6.4 -11.7°
Sets 05:05:45 0° 13° (NNE) 2,871 7.2 -11.3°
